GFSCGP_500_spd_000.txt.gz
Wind_Speed
37 37 40 41 42 44 47 48 48 48 51 55 54 53 54 58 58 64 65 70 68 66 68 71 72 73 78 82 87 88 82 73 55 64 71 73 77 73 69 64 60 60 58 54
39 39 40 41 42 43 43 48 50 51 53 56 57 59 65 62 67 69 68 67 70 73 71 74 73 78 83 87 90 91 71 51 53 56 68 76 76 75 68 67 65 64 61 59
41 42 40 40 41 44 46 49 52 56 57 60 62 66 69 68 70 70 71 73 74 75 76 78 82 84 88 90 96 92 77 60 60 64 64 66 76 75 73 63 68 67 65 62
46 46 45 45 48 51 54 54 55 55 59 63 65 71 69 69 73 73 74 73 74 76 77 81 85 89 92 95 95 86 70 60 62 70 69 69 64 67 76 72 66 67 66 59
49 47 48 51 52 54 54 56 54 57 62 69 71 74 72 73 74 75 74 75 76 77 81 85 89 95 97 94 87 75 67 62 58 64 71 76 68 63 74 75 70 68 69 67
53 55 54 56 57 57 58 58 59 62 65 74 76 74 71 73 77 78 78 77 75 80 81 85 90 92 88 74 71 64 58 56 54 56 68 76 80 63 64 78 73 63 70 68
59 56 57 60 60 62 61 62 65 64 68 72 74 76 74 77 79 78 80 78 77 79 83 89 92 88 71 60 42 47 45 42 43 46 54 70 76 78 55 65 75 59 48 72
59 61 61 64 65 65 64 63 63 68 70 73 69 74 76 77 78 79 79 78 79 81 86 89 86 65 56 40 38 39 41 35 36 38 42 57 80 75 79 59 68 75 51 50
61 64 67 68 67 67 65 63 63 69 73 73 71 73 73 75 74 75 76 77 78 84 85 83 75 60 48 42 41 42 45 43 40 40 38 41 65 79 84 70 61 70 74 50
63 67 70 70 68 66 65 65 66 73 71 73 70 72 73 73 73 72 71 73 78 82 83 79 69 55 45 44 44 50 48 45 44 45 42 39 44 70 80 84 68 72 68 73
70 72 73 71 67 65 65 66 68 70 69 75 76 67 64 72 75 76 74 74 81 85 84 78 68 55 51 42 45 49 53 51 45 44 42 42 40 60 72 84 73 73 71 79
74 77 76 69 65 64 68 67 70 71 72 73 72 71 68 69 75 75 74 79 84 86 82 73 64 56 46 43 46 52 52 50 51 47 40 44 41 46 71 77 80 78 76 79
77 79 77 72 65 67 66 68 71 71 72 69 72 70 65 71 70 72 75 80 85 87 82 70 56 55 50 42 51 49 54 53 52 47 43 41 39 43 64 75 85 81 80 84
81 78 69 65 62 62 66 68 70 69 69 68 70 71 64 71 74 72 73 81 87 87 84 68 55 57 48 50 52 51 55 54 52 49 45 39 40 41 53 76 84 82 83 77
77 69 64 64 61 63 65 64 67 69 65 70 64 67 66 71 73 72 77 84 89 88 81 57 58 62 56 53 58 61 56 52 46 43 41 38 40 39 49 71 83 85 85 79
67 66 63 63 60 63 64 60 62 65 67 67 67 64 65 67 72 75 78 83 89 90 80 60 61 66 61 63 67 71 71 65 56 46 41 36 39 39 46 61 83 86 88 83
66 64 64 62 60 62 59 56 59 61 65 64 64 63 64 63 69 76 80 83 90 90 79 71 67 68 67 71 72 72 63 54 52 49 45 42 39 39 48 62 79 85 91 88
66 67 64 60 58 62 58 53 57 59 62 61 61 61 63 66 66 73 81 83 85 88 78 74 77 76 72 74 70 66 51 45 41 40 41 41 38 39 47 54 75 78 76 85
66 63 60 58 57 57 56 56 56 59 59 56 56 59 63 65 66 66 77 80 83 80 74 79 82 79 72 72 65 56 42 36 38 30 32 35 35 38 48 50 58 76 71 79
61 59 58 57 56 54 54 56 57 61 57 55 57 60 61 67 70 71 76 81 81 75 67 74 79 71 68 67 66 46 32 31 30 23 26 30 33 35 47 54 55 66 73 67
58 58 55 55 57 53 52 56 59 58 54 55 56 59 62 66 72 75 79 79 79 77 65 68 77 71 64 66 61 44 27 32 28 21 24 27 29 30 52 54 55 61 65 61
55 54 50 54 56 54 55 58 57 57 55 54 56 59 62 67 69 73 78 79 77 73 59 64 73 69 64 61 60 44 25 28 24 17 17 18 23 33 52 55 54 58 66 65
53 50 51 52 54 54 55 57 59 57 55 54 56 59 63 65 69 74 76 76 74 70 58 60 66 66 58 50 55 46 20 23 19 11 10 12 22 36 43 46 45 55 58 55
47 49 52 51 48 53 58 56 55 54 54 54 56 60 64 65 68 71 74 76 73 66 56 56 61 59 55 40 41 46 17 15 13 3 6 13 23 30 35 42 41 48 58 53
48 50 48 48 49 55 55 55 53 51 51 53 56 60 63 66 67 69 72 71 70 65 55 52 56 53 52 34 30 34 21 11 7 11 7 9 16 20 25 35 40 45 50 51
46 45 48 50 52 56 56 54 51 50 52 54 57 60 63 64 65 67 70 68 67 66 52 48 49 49 56 44 25 30 21 11 4 11 8 9 12 17 24 34 38 44 47 43

GFSCGP_500_spd_003.txt.gz
Wind_Speed
41 42 41 38 36 36 37 39 41 48 49 48 51 50 55 50 54 59 63 64 65 67 68 71 72 74 76 76 76 79 83 88 98 102 104 99 92 79 66 82 82 74 75 68
46 46 45 40 39 38 39 41 44 48 49 52 54 54 59 56 60 64 66 69 68 70 73 74 74 75 75 78 81 84 92 97 98 105 97 88 68 58 63 76 82 75 68 68
49 49 48 45 43 43 41 43 47 50 54 56 59 61 65 63 65 68 67 67 69 74 74 75 77 77 80 84 87 92 97 102 106 98 80 57 54 63 68 70 63 71 66 66
52 51 49 50 46 45 47 49 53 55 59 61 62 67 67 67 67 71 68 68 69 72 73 77 78 78 83 86 88 95 101 105 95 58 44 47 49 61 75 66 65 57 56 57
59 57 54 54 46 47 50 54 57 60 62 66 65 71 69 68 72 72 69 70 71 74 75 77 77 80 82 87 94 97 99 97 76 38 41 44 46 52 77 71 63 78 58 75
59 58 57 54 50 50 54 57 62 65 68 69 72 72 70 72 68 71 72 73 73 74 75 77 78 81 83 89 95 100 95 79 54 39 43 44 39 40 69 74 74 73 62 71
67 64 61 59 57 57 59 61 65 68 71 69 72 72 70 70 71 71 74 75 74 76 79 78 80 80 84 90 94 95 87 67 48 40 44 50 41 36 43 77 83 70 81 77
66 67 65 63 60 62 64 64 64 67 69 69 67 75 73 72 75 76 76 76 75 77 79 78 79 81 88 93 95 90 75 60 51 41 42 44 44 39 32 56 84 76 79 72
70 72 70 70 65 63 66 68 68 72 72 74 76 78 77 78 76 77 75 76 76 78 80 80 79 83 90 95 94 74 62 58 49 40 43 42 41 40 29 37 75 87 77 83
75 77 77 72 67 65 68 72 71 70 70 72 73 72 78 77 75 74 75 75 77 77 78 78 81 87 91 93 84 64 63 59 49 43 47 48 40 38 35 32 57 85 84 89
79 82 76 69 71 68 72 75 70 67 69 73 74 73 71 71 74 74 72 74 75 76 76 77 81 87 92 91 68 60 57 51 48 47 51 53 47 42 43 37 36 77 92 80
75 82 69 68 70 70 73 75 72 69 69 72 72 74 65 69 72 72 74 76 74 74 77 77 84 89 94 88 62 59 60 50 50 54 54 52 52 51 50 43 36 50 91 90
75 81 72 74 74 73 74 74 68 67 68 69 71 72 67 68 70 70 73 75 74 76 76 79 84 90 94 79 57 63 61 61 62 58 56 50 47 46 49 45 41 39 78 91
76 76 75 79 68 71 73 71 65 66 70 67 72 68 66 67 70 70 71 75 75 77 77 80 85 90 94 75 62 64 63 68 67 65 61 58 52 47 46 47 42 41 70 98
78 75 76 71 68 69 69 65 66 70 66 69 63 68 62 69 69 70 71 72 73 75 77 81 86 91 93 74 62 76 74 71 73 62 50 52 54 51 48 45 43 45 53 98
75 75 73 72 66 65 68 69 64 64 67 66 63 60 64 67 68 68 71 72 73 75 79 83 87 91 91 76 68 78 78 72 70 53 46 45 44 47 52 49 44 46 50 79
71 68 67 68 68 71 76 64 65 62 63 62 63 60 62 64 68 68 69 71 73 77 81 86 90 92 91 78 76 79 76 70 65 48 39 41 40 38 51 49 43 44 48 75
71 70 69 70 70 69 68 62 57 58 59 60 60 60 60 62 65 66 71 70 72 76 81 85 89 90 86 75 75 73 70 69 65 41 38 45 44 37 46 48 45 42 49 75
75 71 68 68 67 67 62 57 53 55 55 55 58 60 61 62 63 63 68 69 72 76 79 83 88 86 84 75 74 66 66 65 66 41 41 47 41 30 39 44 42 40 49 74
71 67 66 67 64 62 56 51 54 56 52 53 57 58 62 64 62 61 64 68 72 77 79 82 83 79 78 70 72 65 62 65 58 38 43 42 32 24 28 34 35 37 49 68
69 66 62 61 61 55 54 54 53 53 55 52 53 58 62 64 65 63 62 65 71 75 77 79 79 77 75 66 68 62 55 62 49 46 44 35 27 21 26 30 30 34 56 67
60 59 57 56 58 56 53 51 52 53 51 54 57 60 61 62 62 62 63 66 70 73 77 79 78 73 69 63 64 58 55 55 46 45 36 27 20 16 20 22 26 38 57 59
55 53 56 54 54 55 51 51 50 50 53 57 59 59 60 59 59 61 63 67 70 74 77 78 76 70 69 58 59 58 53 50 39 37 30 25 17 11 12 19 25 43 45 49
52 54 53 55 51 50 51 49 47 52 55 58 58 60 59 57 57 60 64 66 69 72 74 75 74 69 65 53 52 61 49 40 37 30 21 16 12 2 6 11 24 44 40 42
59 57 55 50 48 50 48 48 52 53 57 57 59 57 55 54 56 59 62 66 68 71 72 73 73 68 63 50 48 56 46 39 29 28 22 17 9 5 5 5 19 30 34 45
60 58 56 53 51 47 45 49 53 54 56 58 57 53 52 52 55 58 62 64 66 68 70 71 71 67 61 47 43 48 51 45 27 24 22 19 15 13 7 8 16 27 38 45

GFSCGP_500_spd_006.txt.gz
Wind_Speed
37 38 42 43 42 42 43 41 37 35 40 44 45 50 53 55 53 56 58 61 58 61 64 69 71 68 70 74 78 81 80 79 78 79 81 84 87 91 91 97 100 92 85 78
39 42 42 43 45 44 44 45 41 42 45 48 51 54 58 60 59 60 60 60 62 63 70 72 71 70 72 76 77 79 78 78 83 89 89 93 94 97 97 77 64 67 66 65
43 41 45 44 45 47 45 45 44 45 48 51 56 58 61 61 64 65 65 64 67 68 71 75 74 73 74 76 79 80 81 86 89 92 95 97 102 91 55 42 50 57 65 67
43 42 48 50 47 50 50 48 49 51 54 59 60 66 66 68 69 71 67 68 68 67 74 76 74 74 76 79 81 81 86 88 89 95 99 99 95 65 44 41 42 50 62 67
49 50 52 53 52 55 56 55 58 56 58 63 59 69 70 72 74 76 70 69 67 71 74 74 74 75 77 79 79 84 87 87 91 96 102 96 72 52 37 38 35 38 54 71
53 55 53 56 56 59 59 62 63 60 61 65 66 70 75 74 74 77 71 70 72 73 72 72 74 76 76 77 81 85 87 89 94 95 99 76 63 47 37 36 36 35 46 75
58 60 57 60 60 65 66 66 65 62 63 65 67 71 71 73 72 72 71 69 72 71 71 75 75 74 75 78 81 84 85 88 94 99 87 64 62 44 34 36 37 33 43 78
57 61 63 65 64 69 67 67 64 64 65 66 66 71 75 75 74 70 68 71 73 73 74 74 75 76 78 80 83 84 86 87 91 91 68 57 57 43 35 34 38 32 39 76
59 61 66 68 69 70 73 68 64 66 74 74 75 73 78 76 73 72 72 74 73 74 74 74 76 76 79 81 83 86 87 91 97 76 58 56 52 46 43 39 39 33 32 70
62 65 69 73 72 76 69 69 68 73 75 74 73 73 77 71 74 74 74 72 71 74 71 73 75 78 81 81 83 85 88 93 96 66 56 50 47 44 45 45 44 44 37 50
65 71 74 76 78 74 66 69 72 74 74 74 76 78 73 69 71 72 72 70 69 71 70 71 74 77 81 83 84 85 89 93 93 65 56 52 59 62 52 56 52 47 47 39
71 71 78 76 70 67 69 73 71 74 72 76 73 76 70 66 69 71 73 66 69 70 69 71 74 78 80 81 83 85 90 95 92 64 56 56 70 61 66 52 59 54 50 43
71 78 80 71 63 71 71 71 72 73 75 73 70 76 63 65 67 72 69 65 67 67 70 72 75 78 80 82 84 87 94 96 87 64 60 69 70 67 54 47 53 55 49 47
74 79 74 66 64 69 68 69 71 69 73 65 75 67 67 63 68 69 65 66 66 68 71 74 74 77 79 82 85 89 94 96 82 66 66 69 71 59 43 39 46 54 51 46
80 83 71 68 69 70 69 72 71 72 67 70 65 71 58 64 68 68 66 64 65 69 73 74 75 76 79 82 84 89 95 95 74 66 69 71 62 43 31 30 38 51 54 51
79 71 71 69 72 72 72 69 68 68 66 66 65 62 60 64 66 65 63 64 65 71 73 73 74 76 79 82 83 88 96 92 71 67 66 64 51 36 39 40 35 45 56 58
70 73 76 72 74 71 77 68 67 62 60 61 62 58 60 65 65 61 62 63 68 71 70 72 74 76 78 81 84 89 96 90 70 68 69 62 52 47 48 47 40 38 53 61
70 70 70 69 73 75 69 68 61 54 55 59 57 57 63 63 59 58 62 66 69 69 69 71 73 75 79 82 83 89 92 87 70 68 70 61 55 51 48 43 39 35 46 58
66 67 71 71 72 71 68 58 56 54 52 54 57 61 61 59 58 58 63 67 68 69 68 71 74 76 78 80 83 88 89 82 67 64 64 54 51 51 46 38 31 27 39 51
68 68 67 67 66 63 58 51 52 53 53 53 60 58 57 55 55 61 65 66 67 67 67 70 73 76 77 80 83 88 88 79 64 60 57 53 47 49 41 33 22 18 34 44
69 68 61 54 52 53 48 48 53 56 54 56 55 55 53 52 58 63 64 66 67 66 66 68 73 75 77 80 82 86 83 73 60 57 53 48 48 47 39 29 17 11 27 38
61 60 48 45 55 58 53 53 54 55 58 55 54 52 50 54 60 62 64 64 63 62 64 68 69 73 77 81 84 84 78 66 54 51 49 42 42 41 37 25 16 18 23 30
61 51 49 52 59 58 56 54 56 58 58 55 53 48 50 57 60 62 63 60 59 61 64 66 68 71 76 80 85 81 72 58 49 48 46 36 36 37 28 23 16 11 16 25
51 55 54 57 61 64 58 62 61 59 54 50 48 47 54 57 60 60 59 57 58 61 63 64 67 70 75 80 82 78 66 50 46 46 45 33 29 30 24 20 14 6 11 16
62 58 60 65 73 63 72 63 62 53 48 45 47 51 54 57 58 57 54 55 58 60 62 65 67 71 75 79 78 72 57 44 41 45 44 34 27 26 26 21 17 10 3 13
65 68 74 66 66 66 65 61 54 50 45 44 48 52 54 56 55 52 51 53 54 56 61 64 66 71 74 75 72 64 50 39 37 44 43 35 24 23 21 18 11 5 9 11

GFSCGP_500_spd_009.txt.gz
Wind_Speed
33 33 33 33 35 39 40 38 39 36 37 41 43 45 49 50 50 51 52 53 54 53 55 58 63 62 63 66 69 73 75 78 82 82 82 82 83 87 88 89 87 88 88 91
36 37 35 35 39 41 42 44 42 43 45 44 47 48 50 51 52 54 53 55 53 55 55 62 66 65 66 67 70 73 77 79 81 82 84 88 92 92 91 87 86 91 93 94
38 40 39 39 41 45 43 48 48 49 50 48 50 52 50 48 53 52 54 56 57 57 60 66 65 65 67 68 71 76 78 79 80 84 87 90 89 87 89 86 91 90 71 61
43 40 41 43 42 45 46 48 52 51 52 55 54 59 54 52 55 56 59 58 62 64 64 65 65 67 67 71 75 77 78 78 81 87 90 89 88 89 87 89 88 62 58 51
44 46 45 46 45 46 49 52 55 56 57 57 51 56 53 55 56 56 56 59 61 63 66 67 66 66 69 73 76 77 78 79 84 89 87 88 88 88 94 92 73 52 45 42
45 47 47 50 49 52 55 55 58 60 59 60 58 59 59 60 62 61 63 63 63 66 67 66 66 68 72 74 74 76 76 80 86 84 85 87 89 92 92 90 56 48 39 39
47 49 51 51 53 55 58 60 64 67 66 62 60 65 60 64 63 64 62 64 66 66 67 67 68 71 71 72 75 74 77 82 83 85 87 85 87 94 97 77 49 44 40 40
53 54 52 53 55 59 62 60 65 70 63 59 62 66 67 63 64 64 64 68 70 69 68 69 71 70 70 72 71 73 80 84 83 84 83 86 92 94 91 58 46 39 40 47
55 57 57 57 58 60 62 65 67 69 63 63 63 64 71 68 66 64 68 71 69 70 69 70 73 69 71 71 72 78 84 84 81 83 83 86 93 94 71 50 50 50 49 43
56 59 58 58 59 60 64 67 70 70 67 68 69 69 73 67 65 65 69 70 69 69 66 70 69 70 70 70 75 82 83 81 82 83 84 90 93 95 56 49 51 56 61 54
60 60 62 63 64 64 68 70 74 70 71 71 76 75 69 67 64 69 70 69 68 65 65 70 68 68 68 71 78 81 80 80 83 85 86 91 90 81 55 55 67 67 64 58
61 64 67 65 69 68 73 73 72 67 67 71 71 79 65 64 64 69 70 69 65 63 68 70 68 68 68 73 79 79 79 80 85 87 89 92 92 75 58 60 64 54 49 47
62 67 70 69 72 74 74 67 61 65 69 71 73 73 67 64 66 67 67 65 63 66 70 70 66 68 70 77 78 75 78 83 85 85 89 92 89 72 59 57 53 49 42 36
63 66 67 73 74 75 69 65 66 66 70 63 72 65 66 61 62 65 66 64 65 69 71 65 64 67 73 77 76 76 77 83 85 85 86 91 87 68 56 57 51 49 44 33
68 70 77 78 76 73 66 69 66 66 62 66 65 66 58 56 63 66 65 65 67 70 67 64 64 70 76 77 74 75 79 84 84 84 88 90 85 65 54 54 51 47 43 36
73 76 79 80 79 69 64 69 61 64 68 67 65 70 50 59 61 62 65 67 70 68 64 63 67 73 76 75 72 75 81 81 81 83 89 90 80 59 50 49 49 54 42 34
76 80 85 80 72 66 68 62 65 66 66 61 63 57 53 57 57 62 66 67 68 65 62 64 69 74 75 73 73 77 81 79 81 86 90 88 75 52 47 47 50 56 41 33
83 80 78 72 63 66 64 65 65 64 62 55 55 50 54 54 58 63 65 68 65 61 61 67 71 73 72 72 73 77 78 79 82 86 91 84 64 50 45 45 50 47 39 30
62 63 66 68 67 71 68 62 59 53 53 46 49 49 59 56 59 63 67 63 60 58 63 69 71 72 71 71 72 73 74 77 84 87 88 79 56 50 42 42 48 43 34 30
59 59 62 64 63 62 60 55 45 45 50 47 54 63 62 58 60 64 63 60 55 59 65 67 70 70 69 71 72 72 74 79 83 86 83 70 51 51 39 39 44 38 31 29
61 63 60 57 63 64 60 52 49 50 54 56 61 59 61 61 63 64 61 55 55 62 65 67 68 71 69 71 70 72 76 81 83 82 75 61 51 50 35 33 35 37 28 22
57 56 54 59 64 64 56 53 54 54 58 60 55 58 60 61 63 60 56 53 56 61 64 65 67 68 68 67 70 73 78 81 81 75 65 53 48 49 33 29 27 29 28 19
59 58 57 60 58 53 55 55 54 61 67 61 57 59 61 63 61 56 53 53 57 60 60 63 65 66 67 68 70 74 80 80 75 67 56 47 47 48 34 26 24 23 28 18
58 55 59 59 55 63 70 69 71 71 62 58 58 59 61 60 56 53 50 53 56 57 59 60 60 62 65 67 71 76 80 78 70 60 49 42 43 46 35 26 19 13 18 17
60 63 59 59 64 66 69 67 68 67 63 58 58 60 60 57 53 50 50 52 53 53 55 57 58 60 62 66 73 77 78 72 64 52 43 36 41 45 34 28 18 12 11 14
69 74 77 80 78 70 74 71 69 68 62 58 57 60 57 52 50 48 48 48 49 51 53 54 57 58 62 69 74 76 73 66 58 47 39 32 36 41 36 27 19 9 9 10

GFSCGP_500_spd_015.txt.gz
Wind_Speed
29 31 33 35 37 38 36 35 35 33 39 45 42 43 37 40 37 40 38 39 40 40 43 45 43 41 44 47 48 52 56 60 58 58 58 57 56 63 69 75 81 78 68 69
35 34 36 37 40 40 40 40 37 37 41 46 44 48 40 39 38 42 39 38 40 42 42 43 42 45 48 48 51 54 59 62 59 61 61 57 59 69 72 79 84 75 70 78
39 39 39 39 40 44 42 44 43 45 44 47 50 54 46 41 36 41 38 39 42 43 44 46 47 47 48 50 52 58 62 61 62 61 61 62 66 71 76 84 79 70 75 81
44 41 42 42 42 45 45 44 46 47 49 54 49 60 57 50 49 45 45 44 45 49 49 50 52 52 51 53 58 62 63 62 59 60 63 66 69 75 82 84 72 72 80 84
45 46 46 44 44 47 48 47 48 49 49 56 50 60 63 50 54 52 49 47 48 51 51 51 52 52 56 60 63 63 65 59 57 62 68 70 76 81 85 79 71 78 83 88
48 49 49 48 49 49 49 50 50 51 52 59 57 60 60 53 57 54 51 51 52 52 53 53 51 53 57 62 64 65 61 57 60 66 72 75 81 85 85 74 76 82 87 88
53 52 53 51 52 51 51 51 54 56 57 60 60 64 57 59 55 58 54 58 56 57 53 53 53 57 61 61 64 63 57 61 66 74 76 80 86 87 77 76 81 85 87 88
55 57 53 55 54 54 53 51 54 57 61 63 65 66 65 61 61 60 59 60 59 57 56 57 58 61 61 62 64 60 60 68 73 78 79 85 87 80 76 81 87 87 89 91
56 60 58 60 57 55 52 54 56 60 61 65 69 69 69 62 64 63 63 63 61 58 58 58 62 63 62 63 60 61 66 72 78 80 83 85 80 78 79 86 88 89 91 96
56 56 59 60 61 57 56 58 57 63 64 70 72 72 69 66 64 62 65 64 61 59 59 62 64 63 62 59 58 63 68 75 79 83 83 82 79 77 83 86 89 91 93 99
55 54 57 63 63 61 62 60 61 65 70 73 76 70 69 64 69 70 70 65 58 58 61 63 62 61 58 58 61 66 71 77 81 82 82 80 76 79 86 88 90 93 96 102
59 60 65 65 69 70 66 63 64 69 72 77 77 72 65 68 72 71 70 66 60 59 61 60 59 56 58 61 65 68 75 79 81 81 80 78 75 84 86 89 92 93 99 103
61 67 70 74 75 71 69 67 65 70 76 79 76 77 72 73 72 67 66 62 59 62 60 58 54 55 60 64 67 72 76 79 80 80 80 74 79 85 87 89 92 97 104 103
68 73 79 79 77 74 73 70 71 73 79 74 80 82 69 71 65 64 63 60 61 57 55 54 54 60 63 67 71 72 75 77 78 77 76 74 82 86 88 91 94 101 104 104
72 78 77 78 78 78 74 72 74 76 78 79 75 83 78 65 61 64 62 62 57 56 54 55 60 63 67 74 71 72 75 77 75 74 72 77 83 86 89 93 97 104 103 105
79 80 78 85 80 78 75 71 76 73 75 76 80 81 56 54 60 60 62 59 56 53 55 60 62 67 75 69 70 72 74 75 72 71 71 80 84 87 91 94 101 102 103 100
78 82 84 84 75 79 79 65 69 69 63 72 68 61 51 55 58 58 57 54 51 54 60 64 67 72 69 69 71 72 74 72 70 69 73 81 85 89 92 95 101 102 103 90
76 79 78 78 75 85 65 57 61 60 60 58 59 53 52 59 57 52 50 50 54 57 62 66 70 66 68 70 70 72 71 68 69 70 75 80 85 90 91 98 99 101 98 74
68 68 72 77 74 68 58 56 57 60 62 59 55 55 55 53 55 53 51 51 52 57 61 63 64 66 68 67 69 71 68 67 69 71 76 82 88 88 92 96 98 101 89 60
65 65 67 68 73 74 62 57 58 57 68 48 55 57 55 57 59 54 56 54 57 57 61 61 64 67 66 66 68 68 65 66 70 72 76 81 86 89 93 95 98 98 80 53
69 68 70 68 74 73 64 59 54 64 50 51 51 54 56 56 62 59 57 61 61 59 60 63 65 68 66 67 67 66 65 66 68 70 75 80 82 88 90 94 97 93 70 48
70 67 69 71 70 76 64 62 65 50 50 45 49 57 58 60 62 60 64 64 61 59 61 65 67 67 65 66 64 64 65 64 66 70 74 77 83 86 89 93 93 82 62 45
70 68 66 67 69 66 66 61 55 50 53 60 66 65 59 62 62 63 61 64 62 62 66 68 67 66 64 63 61 61 62 61 63 69 72 76 82 85 89 89 86 71 55 44
60 52 56 58 57 52 46 45 45 51 58 65 68 63 60 65 56 57 58 62 61 65 67 66 65 64 62 59 58 58 58 59 64 66 71 76 79 84 86 84 75 62 50 42
63 59 49 53 52 51 44 51 57 62 66 65 59 61 60 56 54 56 60 59 61 64 64 64 64 62 57 54 54 55 57 58 61 64 71 74 80 81 79 73 61 54 46 43
86 73 72 66 51 58 61 57 62 59 56 54 57 60 61 57 57 58 60 61 66 67 63 63 63 58 53 51 50 52 54 56 57 63 69 74 77 78 71 60 51 49 46 44

GFSCGP_500_spd_021.txt.gz
Wind_Speed
41 42 38 38 40 39 38 41 42 41 44 49 45 44 38 35 35 31 38 37 41 42 40 43 43 41 39 38 39 41 44 45 46 49 49 48 50 52 55 56 56 57 60 63
43 41 38 40 40 40 41 45 45 46 48 52 51 49 43 41 36 37 33 38 40 40 43 46 46 45 43 43 42 43 46 46 48 49 50 52 53 55 56 57 55 59 62 65
47 43 42 41 40 43 46 48 49 52 53 53 57 56 49 40 39 36 37 36 40 41 44 46 47 46 47 47 47 47 47 50 50 49 50 52 54 56 57 56 57 60 64 68
47 43 42 44 44 46 52 49 52 54 57 60 57 62 57 50 42 41 37 36 37 44 46 48 46 47 49 48 48 49 48 49 50 51 51 54 56 56 55 55 57 61 67 73
44 43 45 47 48 49 54 53 53 55 58 64 60 63 64 60 54 46 40 41 40 45 52 54 52 53 50 49 50 50 49 48 50 51 52 55 57 55 56 56 59 64 72 77
44 47 49 49 49 50 53 55 56 59 60 68 61 63 70 62 59 49 44 43 45 48 52 58 58 52 51 51 51 50 51 50 49 51 54 57 56 57 56 59 62 68 76 82
47 48 51 51 50 51 52 53 58 64 64 70 68 70 61 62 59 49 44 49 45 50 56 57 58 50 47 50 50 49 49 50 50 53 56 56 58 57 60 63 66 74 79 84
50 53 49 52 52 55 56 54 54 60 65 74 74 68 61 59 55 51 48 48 49 48 53 58 60 56 53 54 52 50 48 48 51 54 56 57 59 60 64 68 72 79 83 85
52 56 55 54 55 55 59 61 59 59 66 73 68 63 65 61 58 53 52 47 46 52 56 59 62 57 53 57 55 51 50 52 55 56 57 59 61 64 66 72 77 83 87 86
56 59 60 61 63 65 62 62 63 61 65 68 69 71 74 70 63 56 57 51 48 54 57 61 61 56 55 54 51 51 52 55 56 56 58 61 62 67 71 76 82 87 88 87
60 58 57 58 56 55 58 60 60 61 66 68 70 71 69 61 56 55 57 54 48 55 59 64 60 55 53 51 50 51 54 54 56 57 59 62 65 68 73 79 85 88 88 87
62 63 63 65 66 66 66 65 65 69 68 69 74 72 56 57 55 53 52 52 54 59 64 64 57 54 51 50 53 55 54 54 57 58 60 63 67 72 77 85 89 88 88 86
61 68 69 65 69 70 67 64 65 67 65 72 74 71 57 60 53 47 54 55 57 62 65 62 54 53 51 53 56 54 54 57 57 59 63 66 70 77 83 85 86 87 86 84
71 71 70 69 66 69 70 68 64 61 70 74 77 76 63 56 54 51 56 54 57 63 65 60 56 53 53 53 53 52 55 55 57 62 65 70 74 80 81 84 85 85 85 84
71 78 75 73 73 72 70 68 66 69 69 78 76 77 66 55 56 52 61 55 59 64 61 58 57 54 51 53 52 55 55 57 60 65 71 72 78 78 81 83 83 84 86 85
70 74 74 78 75 73 76 75 71 66 68 73 71 77 64 58 66 61 58 56 63 63 61 62 56 53 54 54 54 55 58 61 65 68 72 74 76 76 78 79 81 83 85 85
76 78 77 81 76 77 76 78 66 67 75 71 81 77 67 68 68 62 62 65 61 60 59 58 54 54 54 51 52 56 61 64 68 71 71 72 73 76 74 76 81 82 84 87
68 77 78 79 74 82 82 66 69 73 71 70 72 67 67 67 67 72 71 67 63 58 56 53 50 50 48 48 54 59 62 68 71 69 69 69 69 71 74 76 77 80 82 86
73 69 75 73 72 73 71 62 59 65 76 69 69 67 63 66 69 60 59 51 54 55 56 54 50 48 52 59 60 61 65 68 69 66 64 67 71 72 73 74 76 79 82 85
88 82 71 65 70 74 65 56 56 61 78 69 64 67 66 68 68 60 63 64 65 63 64 59 56 57 61 65 64 63 68 64 64 67 67 69 70 71 71 74 78 81 81 83
93 93 88 88 83 87 70 62 66 66 81 58 66 69 66 64 63 62 60 64 59 60 60 57 54 57 61 63 61 62 62 64 64 65 66 69 70 71 72 74 77 80 81 79
85 87 90 86 94 103 79 83 84 73 62 54 62 63 63 60 54 47 50 51 48 50 53 56 60 63 65 60 60 58 59 63 65 67 70 71 70 71 73 73 75 79 80 75
93 91 90 93 98 91 85 83 80 77 68 69 59 45 43 48 54 52 49 49 50 52 60 62 64 63 63 58 61 64 63 63 65 68 66 68 69 70 70 72 74 75 74 73
87 78 82 88 95 90 88 87 81 74 65 57 47 59 56 59 50 53 51 56 55 59 59 58 63 60 61 58 60 59 61 62 62 67 68 68 68 70 66 67 71 70 72 74
80 57 75 67 82 88 89 85 82 78 73 72 64 62 70 73 64 60 53 56 53 55 61 61 61 54 55 54 58 60 59 57 60 64 66 65 63 59 57 61 65 67 73 76
101 104 105 108 101 106 98 88 87 86 81 75 72 66 71 66 59 60 60 56 59 59 63 65 62 60 59 57 57 58 58 57 58 62 62 59 53 49 50 56 63 68 70 74

GFSCGP_500_spd_024.txt.gz
Wind_Speed
46 47 42 39 41 42 41 42 43 41 46 52 49 49 39 35 36 32 34 38 38 39 42 41 41 41 42 43 43 42 42 43 42 42 45 47 48 50 51 51 52 53 55 59
48 45 39 43 44 44 45 45 44 45 49 55 53 52 46 42 36 35 35 37 39 40 42 42 44 43 44 43 44 43 44 45 46 47 47 49 51 52 53 53 54 55 59 59
48 43 41 43 44 46 47 47 46 52 52 56 60 57 49 42 42 37 35 37 38 39 40 42 46 49 46 45 47 47 48 47 48 49 49 50 52 53 55 55 55 58 61 59
49 40 41 43 43 45 48 46 51 54 57 60 58 62 51 48 44 40 42 40 36 35 38 43 48 53 50 47 47 49 50 50 51 51 52 53 54 55 55 55 57 59 59 60
43 41 39 40 39 43 50 51 53 57 59 63 59 64 59 55 51 49 44 49 36 29 32 40 47 50 49 49 50 49 47 47 48 49 50 51 53 52 52 55 58 59 61 62
45 46 45 44 43 47 51 53 54 58 60 67 59 64 68 59 59 58 50 39 39 37 40 43 47 53 54 51 43 47 49 51 51 49 48 48 49 49 51 56 60 61 62 63
45 46 46 45 47 49 51 54 57 61 61 66 65 69 66 64 65 55 47 42 40 46 36 41 46 53 56 57 48 44 47 50 51 51 47 46 47 50 54 59 60 62 63 64
52 50 46 48 48 52 55 55 56 62 64 70 68 69 68 66 59 51 47 43 41 35 34 42 49 55 54 57 49 47 51 51 48 46 46 46 49 53 56 58 60 64 65 67
51 55 52 52 54 55 59 60 57 60 64 74 71 65 62 65 60 52 39 39 44 43 38 43 50 54 55 62 57 48 50 49 47 47 47 49 53 54 56 59 60 66 68 69
56 59 61 62 61 63 60 60 63 61 62 66 65 66 73 74 65 40 42 41 48 49 47 45 51 56 61 62 57 51 48 48 51 51 50 53 54 54 58 61 64 67 69 73
60 61 59 59 60 57 60 63 63 62 65 68 67 69 72 66 53 45 45 42 45 52 48 49 54 60 64 63 59 54 50 52 54 53 53 54 55 57 59 62 66 68 73 79
60 64 66 68 66 65 70 68 66 66 65 65 72 68 59 51 56 47 46 47 50 55 50 54 61 67 68 67 60 56 54 56 56 54 54 55 57 60 61 63 67 71 75 79
66 69 70 65 65 66 63 58 59 64 65 68 71 70 57 56 51 47 50 51 53 56 55 61 65 70 71 67 64 60 58 59 58 55 55 57 60 60 63 66 69 74 80 82
70 74 75 73 65 68 66 65 64 63 69 73 78 74 65 58 52 49 52 57 62 60 62 61 62 66 67 70 68 62 62 60 56 56 57 59 61 62 65 68 75 79 82 82
69 70 64 65 62 63 66 66 64 73 78 81 75 77 73 64 60 59 62 65 63 62 64 66 69 69 70 69 69 65 64 60 58 57 58 61 62 64 67 74 77 81 83 82
67 74 76 78 71 71 75 73 71 74 73 77 78 77 66 61 61 62 57 63 62 58 65 66 69 69 67 68 69 68 63 59 58 57 60 61 63 69 71 75 78 81 79 81
68 69 71 74 68 70 74 68 61 69 68 67 71 70 65 59 63 63 64 67 64 64 65 68 67 63 62 62 64 65 63 62 61 59 58 63 66 68 72 76 76 76 79 80
69 71 69 70 66 75 67 56 58 64 59 56 64 60 59 61 60 63 64 68 67 67 68 70 69 65 65 65 62 62 65 64 60 58 61 64 65 68 69 70 74 76 77 79
72 75 79 82 85 85 86 69 65 75 75 66 68 65 64 58 61 64 59 63 66 66 69 68 68 67 66 65 64 63 64 60 57 57 63 62 61 62 65 70 73 74 78 78
88 87 90 80 81 84 89 79 76 76 76 74 74 65 65 62 70 65 64 63 65 64 67 68 66 63 58 59 63 60 56 58 62 64 64 60 60 63 68 70 69 70 74 78
91 94 93 93 91 93 87 80 75 78 89 73 63 62 68 67 63 61 60 65 64 65 67 69 71 63 53 54 56 53 57 61 61 61 60 60 61 62 63 67 68 70 73 75
96 94 94 89 91 95 89 80 84 86 77 73 67 62 61 58 50 51 50 45 53 55 51 49 53 56 54 51 53 58 59 61 60 60 63 61 60 61 64 64 67 69 73 75
96 94 88 93 103 104 97 94 87 84 81 77 70 65 63 56 52 56 54 62 58 58 51 53 49 52 59 59 55 58 62 61 59 62 62 60 61 63 65 64 67 70 72 74
71 81 95 87 83 82 84 83 83 82 78 68 62 62 64 67 65 65 64 69 72 75 77 64 60 58 55 57 57 59 62 62 61 60 61 60 60 61 62 63 66 69 73 73
74 62 67 75 66 62 63 61 64 59 61 57 69 73 77 83 84 83 75 71 73 69 70 74 65 60 60 59 58 61 63 60 58 57 59 58 58 61 61 61 64 67 69 69
106 106 109 106 93 90 86 82 76 76 81 83 87 96 92 87 85 86 79 69 69 70 71 75 66 64 62 61 63 65 66 61 61 59 57 57 58 58 60 60 58 60 61 60

GFSCGP_500_spd_027.txt.gz
Wind_Speed
45 47 41 39 44 46 46 47 49 42 48 55 49 55 46 42 46 40 37 38 41 43 44 42 42 44 44 44 44 45 45 46 47 45 44 43 46 48 50 51 52 52 52 53
47 49 38 43 44 47 48 49 47 47 52 56 54 58 52 48 45 39 39 36 39 44 43 46 46 48 47 47 46 47 48 49 49 48 48 50 52 51 51 52 53 53 52 51
49 49 46 44 45 46 47 49 47 51 53 55 59 60 52 48 44 36 34 36 37 39 46 46 46 45 46 48 49 49 49 48 47 49 52 54 52 50 51 51 52 54 54 52
55 50 50 49 48 45 51 46 47 48 54 57 61 64 51 46 46 39 36 35 37 44 43 35 36 42 46 48 51 51 49 47 50 54 54 53 53 53 52 52 53 52 51 51
53 53 47 50 47 45 50 47 48 51 56 62 63 61 59 54 47 45 43 42 47 35 27 31 34 37 45 50 54 55 52 49 51 52 54 56 56 57 57 55 53 51 50 50
49 52 51 51 50 51 52 53 53 56 60 67 62 62 67 61 53 54 49 47 41 39 37 35 37 43 46 49 53 54 55 50 49 50 53 56 57 58 55 52 50 49 49 52
55 57 56 53 50 51 53 53 57 63 65 68 61 67 69 67 65 63 59 41 41 40 35 30 29 34 41 47 51 55 57 55 46 47 53 58 60 57 53 49 49 50 54 57
58 60 56 56 55 54 56 57 60 66 66 70 67 69 68 69 69 65 56 44 35 34 33 34 36 38 44 50 53 57 57 56 52 49 52 58 57 55 52 51 51 54 57 59
54 58 60 61 59 59 64 63 59 63 67 72 70 70 67 68 68 60 29 40 31 33 37 39 43 39 45 50 55 56 57 57 59 57 54 56 58 56 55 55 56 57 59 60
60 62 59 60 61 65 68 66 67 67 69 74 63 66 70 70 70 45 52 33 37 48 41 44 50 45 50 53 56 56 56 58 56 58 58 55 58 61 59 58 61 62 63 62
61 63 64 65 65 61 63 64 67 66 68 69 67 66 72 71 67 58 48 44 44 47 46 49 49 50 53 57 56 59 62 64 64 62 60 62 63 64 62 63 64 65 64 64
71 72 75 70 63 61 67 69 70 73 70 70 68 70 65 59 55 56 47 51 48 51 53 55 53 60 59 61 64 65 63 65 67 65 65 66 66 67 65 67 68 67 66 66
68 72 74 71 67 67 69 65 66 68 66 70 74 70 57 52 56 55 57 55 55 59 58 60 62 63 64 67 67 61 61 66 64 63 64 65 66 69 70 69 67 67 66 68
71 74 72 74 68 64 68 67 67 69 73 71 74 73 60 55 56 56 56 60 64 60 64 61 64 62 63 65 62 60 67 63 62 60 62 63 65 66 65 66 67 66 67 68
62 68 70 69 67 68 71 73 75 73 73 77 69 71 65 61 57 60 63 57 56 59 60 62 61 58 60 64 64 66 66 63 64 63 64 64 61 59 61 64 66 67 65 69
61 64 64 66 64 65 73 75 73 72 75 72 72 72 66 60 59 57 53 56 58 54 57 59 61 65 66 63 67 70 68 69 67 65 65 65 64 64 64 62 65 65 67 69
71 69 68 70 65 66 74 69 66 63 65 67 69 65 57 61 59 51 58 61 65 64 64 65 67 67 65 67 69 70 71 71 67 67 67 66 65 64 63 62 61 63 67 69
83 82 79 80 73 78 70 64 64 69 70 66 66 58 58 60 59 67 65 59 62 64 66 67 65 64 64 64 63 62 63 67 68 68 68 65 65 63 62 62 65 67 65 65
95 91 92 89 90 90 87 71 65 65 71 68 68 65 69 73 63 64 61 64 71 71 73 72 74 77 75 69 69 66 63 65 64 62 61 63 65 64 63 64 62 62 65 67
88 88 87 85 89 96 91 81 79 82 92 82 76 81 77 66 63 68 61 64 66 68 70 72 67 61 61 67 69 65 63 57 55 58 64 64 64 61 60 60 60 63 66 67
77 81 82 83 91 93 86 85 88 94 99 89 78 76 74 66 67 66 65 69 72 72 71 70 58 57 55 47 48 50 55 57 57 55 61 59 58 60 59 58 62 65 66 66
76 82 82 89 97 101 96 89 90 89 81 81 82 77 74 73 75 78 74 73 74 74 73 65 58 58 60 62 62 62 60 60 59 60 61 60 61 60 59 62 66 68 67 67
81 84 86 83 93 86 80 79 78 79 83 83 77 76 74 78 82 79 69 70 71 73 70 61 56 55 62 72 77 74 67 61 64 68 56 54 60 61 60 59 61 66 68 66
72 78 77 70 69 70 69 68 75 78 84 73 74 70 67 69 67 66 66 65 70 69 65 65 69 76 69 66 68 72 72 69 64 65 65 62 63 62 65 62 60 64 66 66
58 52 60 68 65 73 80 79 81 77 60 63 56 56 63 66 67 64 65 65 68 69 67 76 84 77 69 68 70 68 69 71 65 64 63 64 71 64 63 61 61 63 63 64
99 99 95 101 95 89 90 86 83 66 59 57 64 70 75 75 75 70 71 69 76 80 80 89 93 86 77 74 71 70 68 70 69 68 74 69 67 65 60 61 59 61 60 60

GFSCGP_500_spd_030.txt.gz
Wind_Speed
45 49 44 38 44 47 47 46 48 41 37 56 54 53 43 37 45 44 41 39 41 43 44 44 40 42 41 42 45 47 47 46 45 46 45 47 49 50 50 50 50 51 51 50
51 54 42 45 47 51 51 51 49 48 42 51 56 54 47 44 40 42 40 37 39 41 42 44 42 42 44 46 48 48 48 45 45 46 47 48 51 51 51 52 55 54 50 49
53 56 49 50 50 53 52 55 53 56 48 57 55 60 49 44 44 40 35 36 37 38 41 43 42 45 48 45 44 46 47 47 47 46 48 49 51 53 54 54 52 52 52 54
57 56 55 57 57 51 57 53 57 57 54 59 58 69 56 46 45 40 36 31 35 38 39 41 47 44 41 41 43 44 45 48 48 48 49 51 52 54 53 52 53 52 53 55
50 50 51 54 50 52 56 54 53 57 59 63 65 68 65 55 52 46 42 37 39 40 42 38 32 33 37 43 48 49 51 52 51 52 50 49 50 51 52 54 55 57 57 58
50 50 55 54 52 49 53 56 56 59 63 73 67 64 66 62 58 51 50 46 44 47 43 33 33 36 38 42 46 49 50 49 48 45 43 43 42 46 51 55 58 60 61 59
53 54 53 55 55 56 55 59 60 63 67 71 67 71 70 67 63 62 57 51 52 34 34 37 31 29 30 35 40 44 47 47 46 42 42 41 39 41 50 55 58 59 58 57
56 57 56 54 54 57 59 60 63 64 68 72 70 73 69 67 65 64 63 55 40 30 31 35 27 30 35 39 41 45 47 45 44 44 43 44 48 47 48 53 57 57 55 58
62 61 60 61 60 58 60 65 61 63 68 72 69 69 67 65 67 66 61 51 23 38 24 27 36 40 38 42 44 47 47 46 48 47 49 54 51 50 52 54 55 55 58 60
69 70 63 61 64 66 68 64 64 67 68 71 70 70 65 64 68 53 29 24 43 33 33 34 38 42 43 45 49 51 51 51 52 53 55 58 48 54 57 58 57 58 60 59
74 77 72 68 65 63 67 69 69 68 70 74 72 63 62 67 62 61 61 51 49 45 38 42 44 46 54 56 54 54 55 57 57 57 56 53 51 55 58 59 58 57 59 61
77 76 75 73 71 71 73 69 70 74 72 77 76 67 61 61 64 59 62 59 49 53 53 51 50 53 58 58 57 57 59 60 60 58 52 53 56 59 62 62 62 63 63 63
70 77 76 71 66 63 69 68 68 74 77 78 74 69 55 54 60 60 60 59 56 55 54 56 58 60 61 60 60 60 61 61 61 59 57 58 59 62 65 66 65 66 66 64
59 62 63 60 58 56 59 61 65 64 67 70 71 69 59 62 57 56 55 54 55 55 59 62 64 63 62 60 60 58 57 58 56 60 63 61 64 67 70 70 70 70 68 65
64 66 60 57 55 54 62 61 60 67 70 74 74 73 67 54 58 56 55 55 57 60 61 61 60 59 58 56 56 58 59 60 64 67 66 65 67 72 72 73 71 70 67 65
77 80 76 76 75 71 68 63 58 63 66 72 71 71 58 59 61 61 56 54 53 53 48 52 55 55 58 60 64 67 68 69 68 68 66 67 71 72 71 69 65 65 63 63
85 82 89 92 81 70 78 75 72 65 61 60 64 61 57 61 57 53 53 49 47 48 56 63 63 66 70 70 71 74 77 71 67 69 70 71 68 70 71 69 63 60 61 62
77 77 78 84 88 94 97 78 73 77 79 78 77 72 64 61 59 57 55 56 58 62 59 68 72 75 76 74 73 74 68 68 69 73 74 74 74 70 64 62 59 62 63 63
69 72 79 82 88 87 83 86 82 86 89 84 79 75 74 70 69 68 64 64 66 70 65 70 69 72 72 71 69 66 67 68 67 65 66 67 58 59 56 56 60 62 65 65
69 76 82 79 81 86 81 68 66 73 88 75 81 75 65 65 72 78 74 73 82 74 65 69 73 74 73 72 71 67 67 66 60 62 55 51 50 55 57 56 62 65 67 67
86 74 78 76 81 85 75 68 60 65 68 58 60 68 69 73 76 79 81 83 80 71 66 69 74 74 71 72 73 69 66 58 58 58 63 62 65 64 59 58 56 62 65 67
89 79 92 94 93 90 76 73 67 69 77 74 73 79 81 84 88 91 93 83 77 74 71 72 73 74 71 75 72 66 64 61 62 57 63 66 63 60 60 56 58 60 64 64
80 80 71 56 48 55 72 74 70 67 73 73 75 77 78 82 82 78 70 70 76 77 69 66 66 69 65 69 70 67 67 65 60 61 61 63 67 61 59 59 59 58 59 63
67 72 91 85 85 81 77 74 64 59 64 61 77 76 85 80 69 61 59 66 75 73 65 58 59 64 69 72 71 73 67 69 67 66 70 66 65 66 64 61 60 60 63 67
93 91 83 83 82 75 68 71 74 77 89 87 83 86 84 77 72 76 62 63 65 65 63 58 64 63 64 66 78 79 73 71 75 78 82 75 70 68 68 66 64 57 66 64
88 93 102 107 100 99 95 91 92 96 92 94 96 86 72 65 63 62 71 75 80 71 65 59 63 68 67 71 81 79 79 75 83 89 91 88 82 78 72 70 60 63 69 60

GFSCGP_500_spd_033.txt.gz
Wind_Speed
44 52 48 37 42 47 49 52 52 44 39 52 55 57 49 38 39 38 38 39 38 37 36 40 41 41 40 40 38 39 39 43 44 45 43 40 39 39 40 40 41 41 42 44
46 53 43 44 47 51 53 53 52 51 43 52 58 63 59 47 39 38 39 36 37 36 36 40 41 40 39 41 40 41 43 46 46 45 43 40 39 38 40 43 44 43 43 43
48 47 45 47 50 51 54 57 55 57 53 57 62 69 64 53 44 39 37 36 35 33 37 40 41 42 43 42 43 45 47 45 44 43 42 38 38 40 44 44 43 43 43 42
51 41 42 47 50 48 54 49 56 60 61 66 61 72 66 56 50 45 40 39 36 36 41 42 41 43 46 45 47 43 41 41 43 44 42 41 41 39 36 37 39 41 43 45
50 49 48 46 44 49 51 48 49 52 57 65 68 70 65 59 53 49 43 41 39 36 39 43 46 45 47 42 39 40 43 46 48 47 44 40 36 33 32 34 35 42 46 48
51 47 47 44 45 46 48 52 55 58 60 68 67 64 62 63 60 55 53 47 42 40 44 41 39 37 36 35 39 44 48 48 45 42 40 38 35 34 33 33 35 43 48 51
50 53 54 52 50 51 48 48 55 63 65 68 66 69 66 66 65 63 59 51 49 45 40 42 37 31 31 38 40 41 43 43 42 41 40 42 39 37 37 36 39 44 49 51
58 57 53 55 56 55 59 59 62 64 65 66 68 72 68 69 67 65 62 56 56 54 41 35 30 36 32 34 33 36 40 41 41 43 43 43 43 43 42 44 46 42 48 50
59 60 57 58 58 59 62 64 61 68 69 72 67 69 67 67 66 64 63 58 46 20 21 27 32 32 36 37 38 41 42 44 45 44 44 44 46 48 49 51 50 45 48 50
62 64 60 61 61 64 68 66 67 68 73 73 68 69 65 66 63 64 65 53 35 28 25 32 30 37 42 48 47 43 45 43 45 48 49 49 50 54 55 55 50 50 53 55
69 74 73 69 66 62 65 67 67 69 71 74 75 67 58 62 62 62 60 55 42 49 40 43 44 43 44 49 51 52 52 46 47 49 51 52 55 56 56 56 54 56 59 60
73 68 76 72 61 52 55 60 61 74 71 75 78 75 50 59 62 62 64 64 59 52 53 54 48 56 60 55 55 56 54 53 52 53 53 53 52 51 52 52 54 60 64 64
75 80 70 70 55 50 54 50 52 58 67 70 73 62 46 53 55 60 57 60 60 58 60 59 59 61 57 51 51 53 56 56 54 54 52 49 47 48 50 55 59 62 64 66
78 80 84 90 81 71 61 53 51 53 60 59 60 58 49 52 55 57 52 53 55 56 54 56 59 59 60 60 57 56 56 52 51 49 48 49 52 55 59 63 66 67 69 69
80 87 88 89 86 79 67 65 59 56 57 61 51 54 40 40 48 53 54 57 58 59 61 57 57 61 61 57 57 56 54 54 57 55 56 56 58 62 64 64 65 67 70 72
82 88 85 84 85 76 72 70 71 72 69 72 76 79 68 55 48 52 48 39 46 49 50 51 58 54 51 56 57 54 57 55 58 58 60 65 66 66 64 63 64 68 75 77
67 71 75 84 80 82 82 88 81 73 83 84 72 75 66 65 60 59 61 57 56 51 53 50 47 50 54 59 59 60 59 60 62 65 67 66 66 67 63 64 66 68 70 68
65 65 65 73 64 73 75 68 65 63 67 66 69 69 71 68 65 67 67 69 65 66 64 65 65 66 62 67 68 68 67 69 71 73 71 70 69 67 65 65 65 66 61 54
57 62 66 68 60 61 61 59 57 57 64 60 66 67 67 69 70 75 69 72 77 77 74 76 74 73 72 71 75 74 74 75 79 75 73 74 72 67 65 65 63 62 58 57
84 86 87 81 82 77 71 70 72 72 66 67 74 80 79 70 69 68 70 75 78 77 75 78 79 79 79 75 73 76 80 82 74 71 75 75 71 71 69 64 63 59 59 58
93 100 101 95 89 87 76 81 60 67 75 69 66 73 76 74 75 71 63 64 67 70 68 69 70 70 69 73 76 77 76 71 71 71 66 69 71 70 67 65 62 57 57 61
89 93 96 97 92 88 82 83 87 95 93 95 95 92 83 84 87 71 67 66 65 68 71 69 70 70 74 72 73 69 70 74 73 67 70 74 69 67 65 66 60 49 55 59
78 79 85 85 89 83 79 76 71 68 79 80 86 83 89 74 68 68 71 76 78 79 74 68 68 71 72 69 69 71 72 71 68 67 68 69 69 66 66 69 71 66 62 69
77 75 78 82 82 82 76 77 71 70 79 91 92 91 73 74 76 74 75 81 80 67 66 71 71 69 69 71 72 65 66 68 67 68 69 68 61 64 69 72 74 77 71 74
69 71 74 79 80 83 87 87 92 92 87 76 71 72 74 84 85 84 84 86 83 76 74 77 75 75 72 78 74 65 66 63 65 68 68 69 65 62 70 73 72 73 73 83
57 62 66 73 75 80 81 82 91 91 97 102 101 103 100 99 89 85 73 76 75 78 78 83 90 91 82 81 79 67 67 68 71 73 73 73 65 63 62 69 79 85 86 89

GFSCGP_500_spd_036.txt.gz
Wind_Speed
47 49 43 36 42 46 50 52 52 45 40 51 52 56 51 44 45 41 39 37 36 33 29 37 40 42 42 42 42 41 42 41 41 42 41 41 43 46 40 37 35 34 34 35
48 52 42 44 43 45 49 52 53 51 44 53 56 58 60 56 49 43 41 42 40 38 32 33 37 41 40 40 40 40 40 40 42 42 43 45 48 45 34 33 33 35 36 36
49 51 47 47 48 49 49 53 51 55 52 55 58 53 56 58 50 41 39 38 40 40 37 37 40 42 41 42 42 41 42 43 44 45 47 50 47 37 33 34 35 36 34 34
50 37 41 44 46 39 52 43 50 54 57 61 56 61 55 55 54 47 42 40 39 39 40 38 43 46 46 44 44 45 47 47 47 48 46 42 40 38 37 37 35 35 34 35
53 52 52 52 49 51 53 52 53 55 60 65 66 67 61 58 60 54 50 40 40 38 37 39 45 48 51 50 49 48 49 48 46 44 45 44 43 40 36 33 35 34 35 36
60 56 58 53 49 48 51 53 55 57 60 67 61 66 69 61 67 68 64 55 53 47 44 43 44 49 50 51 49 46 46 47 46 49 49 47 41 36 35 35 35 37 37 38
58 57 56 55 54 54 52 53 58 64 64 67 56 67 62 62 60 65 70 65 58 51 47 47 43 47 47 47 47 43 43 45 48 49 46 40 37 37 37 37 37 38 39 40
70 68 53 52 54 54 56 58 62 67 64 63 60 65 54 49 57 64 64 66 66 61 55 52 48 37 39 42 42 43 46 49 53 51 48 44 42 41 41 39 40 43 44 46
66 72 65 61 57 56 59 59 55 63 65 71 67 61 56 48 53 59 67 68 63 53 33 32 30 39 40 34 36 38 41 48 49 48 49 46 44 45 44 43 45 47 50 52
70 75 68 66 66 62 62 60 62 66 72 73 73 66 54 43 52 58 65 68 65 57 53 32 32 38 42 36 35 38 43 47 51 52 52 52 47 47 50 51 51 53 55 57
80 75 79 77 76 68 63 64 65 67 68 74 77 71 43 50 52 59 62 59 59 58 39 28 32 39 43 45 44 53 52 53 54 56 54 53 51 51 53 53 55 56 56 57
70 74 77 74 72 67 71 70 72 74 73 66 65 66 46 55 61 58 59 63 58 50 39 46 45 49 59 61 63 59 56 56 56 53 58 58 58 55 56 57 57 56 54 54
63 72 75 78 74 67 71 66 71 77 76 79 79 72 45 43 51 58 53 48 50 48 49 51 57 57 58 63 65 68 63 59 56 54 57 56 54 56 58 56 54 50 49 52
57 66 74 80 75 71 72 68 68 74 79 85 92 87 67 51 51 53 40 26 33 43 49 50 58 61 58 62 66 57 56 57 59 57 58 58 56 55 53 52 48 49 51 54
54 64 70 71 70 70 75 76 75 78 85 92 87 84 76 68 53 46 49 42 54 47 44 44 40 42 44 53 53 52 55 53 55 56 58 60 58 55 55 54 52 52 54 57
58 66 64 64 61 66 67 61 65 75 82 87 82 80 69 60 63 58 64 72 63 56 58 54 49 51 47 49 48 47 52 57 62 63 63 63 59 57 55 55 57 59 59 62
76 77 76 76 78 78 64 56 53 56 55 57 69 72 72 76 74 68 68 80 84 79 74 75 69 67 63 54 56 52 52 56 60 59 59 60 61 60 60 60 62 64 65 66
78 80 84 93 87 85 73 70 60 52 46 54 57 60 53 53 57 59 67 71 79 79 76 72 71 73 71 70 68 68 67 63 58 60 62 63 61 63 64 65 66 67 67 66
69 71 79 84 84 85 84 77 82 75 73 74 68 69 64 60 54 56 62 72 73 72 77 75 72 73 73 67 76 78 79 74 75 77 76 69 67 69 67 67 67 68 68 65
69 72 74 76 80 71 63 60 43 44 57 63 73 75 77 77 71 69 69 69 69 71 70 67 69 71 73 76 77 79 77 78 78 76 76 76 74 69 65 67 70 70 68 63
74 73 76 79 83 86 95 93 70 69 75 61 61 72 74 76 75 69 70 58 62 73 73 76 76 72 74 74 75 76 76 73 71 73 73 69 67 68 68 69 70 70 67 63
71 71 71 75 81 85 83 90 94 105 101 96 93 86 71 81 70 76 81 78 81 79 72 69 77 83 82 73 76 76 74 72 68 65 65 66 69 66 68 68 70 72 70 63
66 66 70 72 75 73 76 77 81 84 89 93 99 105 112 108 105 100 83 84 97 94 88 81 81 73 77 78 74 74 77 79 69 64 62 63 67 69 62 66 70 72 70 68
64 59 65 67 68 72 75 75 77 79 76 77 80 84 83 87 86 91 99 88 82 93 84 82 85 85 72 75 70 72 79 77 71 66 61 60 69 73 74 71 72 75 73 72
61 61 60 64 61 63 68 70 77 80 83 84 84 86 88 90 87 90 89 92 99 93 88 86 88 80 69 74 72 75 81 74 69 75 63 63 73 70 72 67 70 73 76 74
55 57 57 57 54 56 58 61 65 70 76 81 86 91 95 100 100 97 99 99 88 81 83 98 96 83 75 75 73 76 87 87 80 82 79 68 70 80 80 73 75 73 75 70

GFSCGP_500_spd_042.txt.gz
Wind_Speed
53 54 52 46 51 52 53 52 52 49 47 44 40 46 43 40 41 41 38 34 35 35 37 39 42 44 46 45 47 46 45 45 45 46 49 47 49 50 47 44 44 44 44 44
51 52 48 50 50 51 52 54 54 53 50 50 49 48 48 47 44 39 40 37 34 29 29 34 38 40 40 43 46 50 48 49 47 46 46 51 50 49 48 46 45 45 45 46
47 48 43 44 45 46 48 51 53 57 54 53 56 58 56 53 49 45 42 43 42 41 37 36 39 42 44 45 48 48 50 52 53 50 52 50 49 48 48 47 48 50 51 51
47 44 43 47 49 48 52 48 54 56 61 64 62 65 63 62 60 55 51 47 45 42 37 39 37 38 42 47 49 50 50 50 53 52 51 53 52 51 50 52 53 55 55 56
51 50 50 50 50 52 53 55 56 60 61 65 71 71 68 67 66 66 64 54 52 52 52 50 47 44 43 45 49 52 55 57 57 56 56 56 56 55 51 54 59 59 59 59
53 54 57 55 54 54 55 56 58 60 62 64 65 64 61 65 69 68 67 66 63 58 54 47 46 49 47 48 48 51 53 55 59 63 64 64 58 58 58 58 60 61 62 61
59 60 59 56 57 58 55 59 64 67 68 70 69 70 71 74 70 69 64 62 61 55 53 51 53 49 53 53 57 57 55 56 58 61 64 67 63 61 60 61 62 63 63 61
69 69 64 64 63 63 63 61 61 65 68 72 69 79 81 74 71 70 62 58 61 59 60 60 57 57 54 56 54 55 57 55 57 57 62 68 73 66 64 64 63 61 57 54
69 75 73 72 71 72 72 74 67 73 75 78 81 83 80 78 74 69 63 63 64 66 67 67 66 65 58 57 61 65 62 58 56 58 59 62 68 73 67 63 59 55 53 54
75 79 79 79 78 81 78 76 76 77 76 80 84 86 87 84 81 76 72 67 68 69 69 66 68 72 65 64 66 68 60 59 58 62 61 63 69 64 55 54 51 49 49 51
76 79 83 85 86 78 77 81 82 73 73 80 78 81 94 90 87 85 72 60 61 61 63 70 72 72 70 69 71 76 76 67 69 65 60 60 59 49 47 48 49 50 53 54
77 76 83 83 81 85 80 74 69 64 70 71 74 79 81 72 66 67 68 59 60 66 66 69 72 74 73 74 74 66 65 63 64 66 62 63 66 59 57 56 53 55 55 54
77 79 79 83 87 82 77 76 70 70 70 77 82 83 67 64 64 62 61 66 67 68 70 76 75 75 76 73 71 70 63 65 63 60 65 65 69 65 61 60 60 59 58 60
72 71 75 76 75 79 80 76 75 74 77 69 60 67 68 66 68 66 64 64 65 65 72 77 78 77 82 76 78 70 67 68 70 68 64 61 72 74 72 67 65 63 63 67
67 72 70 72 72 71 71 73 72 74 68 79 80 82 75 76 75 75 75 65 67 66 72 74 74 80 90 91 77 69 71 72 74 73 70 66 70 73 71 69 70 74 75 78
70 72 72 73 70 68 72 71 71 69 73 83 86 81 79 80 82 76 71 72 65 65 70 79 75 75 81 88 83 80 76 66 67 65 67 73 74 77 80 80 79 79 80 79
72 71 71 78 70 73 78 73 72 73 74 79 83 85 93 94 91 94 92 82 77 79 87 86 81 74 72 76 82 73 75 85 85 73 61 60 63 72 79 85 83 80 73 83
71 71 75 81 76 82 78 77 79 80 80 81 83 84 85 86 85 86 87 89 90 90 89 82 83 76 77 71 75 72 69 78 81 81 72 63 61 66 71 75 66 61 62 63
72 74 78 80 81 84 81 79 78 80 82 83 83 83 83 84 82 80 83 83 81 81 80 81 80 81 83 79 77 75 72 66 71 67 65 65 69 73 77 78 72 68 71 62
72 74 75 76 79 82 80 78 77 79 80 80 80 81 83 84 85 79 81 80 76 71 72 73 72 75 78 78 77 77 76 72 77 71 62 63 67 67 71 74 75 65 71 73
70 71 72 73 75 78 75 71 71 73 76 77 79 82 84 86 87 84 83 84 84 84 76 70 71 73 76 80 77 76 82 86 87 71 62 64 64 63 66 67 65 67 67 62
65 67 66 68 70 74 71 72 71 74 76 78 81 81 83 84 84 84 82 83 83 84 85 91 91 84 80 75 79 72 73 72 76 86 80 66 64 59 55 60 60 59 60 59
60 59 63 64 67 65 65 67 69 70 74 75 77 77 80 81 80 81 82 81 82 84 85 86 88 96 98 99 102 93 93 88 75 76 71 69 71 67 55 58 60 63 65 69
54 54 60 62 59 62 63 64 66 66 67 69 70 71 72 74 75 78 79 79 79 81 82 84 86 88 91 96 96 95 99 100 98 96 91 87 78 77 69 64 66 68 71 76
52 55 54 59 58 57 58 59 59 61 62 63 65 66 68 69 70 72 75 77 78 79 80 82 83 83 85 89 94 96 91 94 98 100 101 100 99 90 85 89 83 81 75 66
50 52 51 54 53 54 56 54 58 59 59 62 63 63 64 68 72 75 76 76 77 78 78 80 81 82 83 84 87 89 91 91 92 97 96 98 101 105 104 97 83 78 76 71

GFSCGP_500_spd_045.txt.gz
Wind_Speed
47 49 49 46 48 50 51 52 52 46 44 42 41 42 40 34 33 29 28 27 26 29 29 32 35 37 39 39 39 38 39 42 44 45 46 45 42 45 46 47 48 47 46 46
47 47 42 43 44 47 49 50 49 50 47 50 48 43 45 44 40 32 30 34 37 38 39 36 38 42 44 47 46 46 44 44 46 46 49 50 48 48 49 49 48 48 46 46
46 49 44 40 40 41 46 47 48 53 51 50 57 54 51 48 49 43 40 41 47 43 39 41 40 43 45 46 46 48 48 48 48 50 50 50 53 52 50 47 49 51 52 52
41 35 38 44 45 47 50 47 51 53 57 59 57 62 58 58 56 56 50 48 45 43 40 39 41 44 45 44 48 50 50 50 49 50 51 50 51 53 51 51 53 55 55 56
46 48 48 51 48 48 50 53 54 55 59 64 66 64 66 63 61 62 63 49 35 32 42 43 46 47 51 52 52 53 53 55 58 57 53 54 56 57 56 57 58 57 58 60
47 51 53 52 52 51 54 54 57 62 63 68 66 66 71 68 66 66 61 49 54 51 51 47 41 43 47 48 48 51 58 59 55 56 56 57 60 60 60 60 62 61 61 64
51 52 53 51 52 52 53 56 61 66 69 71 68 69 71 75 70 68 65 64 64 62 65 67 62 59 58 56 54 54 55 60 61 56 58 61 62 60 62 62 65 66 64 64
56 55 50 54 54 57 61 60 62 67 68 71 70 76 71 71 76 73 69 67 69 69 68 71 74 74 73 69 61 56 53 51 57 58 61 57 55 58 59 58 62 68 73 69
62 63 64 62 66 68 69 69 65 69 70 76 80 82 77 75 75 73 74 76 74 69 76 75 72 71 73 76 70 69 69 70 69 67 68 72 74 75 75 76 74 75 75 72
65 71 69 68 68 71 69 69 70 69 68 75 83 83 88 84 84 80 74 84 84 84 74 75 74 73 72 72 70 68 68 66 69 72 74 73 73 73 75 78 76 78 74 64
70 70 77 74 75 71 72 73 70 68 70 75 79 85 84 84 86 87 86 85 89 88 80 76 76 73 70 68 69 71 71 72 70 70 70 69 71 68 65 68 73 69 76 71
71 74 77 81 79 77 76 77 75 76 79 74 64 67 64 78 76 78 83 84 83 83 77 72 73 68 71 72 75 72 76 77 77 69 67 65 69 73 70 70 75 79 76 67
74 76 75 77 78 78 76 75 74 69 65 65 70 73 70 77 75 76 76 76 76 74 73 72 74 70 68 72 76 74 76 82 79 78 70 72 64 68 71 70 67 69 73 66
68 72 74 75 76 76 73 70 70 75 78 78 77 82 78 74 78 71 66 64 67 68 73 73 76 73 76 74 76 73 72 78 76 66 63 65 68 71 73 69 67 69 70 69
69 72 72 73 73 72 72 76 75 77 77 78 77 77 76 78 76 71 70 67 67 74 66 66 76 80 85 84 81 79 82 83 80 70 71 68 71 72 76 76 70 70 70 72
75 77 77 78 74 75 79 77 76 76 76 78 76 77 79 76 76 75 75 78 83 85 91 90 86 79 86 87 81 78 83 84 86 76 76 81 69 75 76 78 79 76 76 79
73 73 74 81 75 75 80 76 76 76 77 79 80 82 83 82 82 81 80 81 82 83 85 85 84 88 90 96 91 85 87 88 87 90 87 83 74 68 74 80 75 78 79 80
73 72 73 79 75 81 78 78 78 79 81 84 85 86 87 86 85 84 86 87 87 87 86 85 85 85 86 91 94 94 96 99 98 95 95 91 84 71 71 75 82 79 71 69
69 71 74 76 77 80 79 76 76 79 81 81 81 82 82 83 84 80 81 82 82 82 82 82 82 81 81 82 84 83 84 86 88 89 87 88 86 80 68 68 67 71 72 79
62 65 71 72 76 78 77 75 76 76 79 73 75 78 81 82 84 80 80 80 79 79 82 84 84 84 84 84 86 86 84 75 75 80 82 86 89 86 65 65 71 71 71 70
60 61 64 66 70 72 67 65 67 68 67 70 72 73 75 76 77 78 78 81 81 81 82 84 84 83 82 81 82 82 83 84 77 77 77 79 78 84 78 70 69 73 72 72
55 57 57 59 62 63 61 61 61 61 65 67 70 72 75 76 78 79 80 82 82 83 82 82 84 83 81 81 83 82 81 81 85 83 76 77 71 66 70 77 69 72 70 72
50 51 55 55 57 56 58 60 60 62 66 66 69 70 72 75 76 78 79 79 79 80 81 80 82 82 80 82 83 83 81 82 83 89 91 88 82 83 73 67 69 62 62 67
46 47 52 56 51 55 57 58 58 58 60 62 64 65 67 70 71 74 75 77 79 79 79 80 81 81 80 80 81 82 83 84 84 83 90 98 97 94 90 85 76 66 65 62
45 48 50 55 52 54 55 54 57 58 57 58 59 63 65 69 71 74 74 74 74 74 75 76 77 77 77 79 80 81 82 83 84 85 85 88 93 98 96 94 91 87 80 75
45 49 53 55 51 53 54 53 53 54 56 60 62 63 65 70 72 72 69 71 72 72 72 72 72 72 71 71 71 73 75 77 80 83 83 85 87 88 96 96 92 95 93 89